Weather in Shchelkino

Russia / Republic of Crimea     45°25′43″N   35°49′30″E
temp.,
°C
wind,
m/s
gust,
m/s
humid.,
%
clouds,
%
prec.,
mm/h
press.,
hPa
HPBL,
m
17 august, wed
wed1700:00+26w88710 0.2 1010503
03:00+25w67730 0.2 1010524
06:00+24w56760 0.0 1010527
09:00+25wsw33720 0.0 1010537
12:00+25nw33696 0.0 1010362
15:00+27nne336126 0.0 1009272
18:00+27e336598 0.0 1009257
21:00+26s33695 0.3 1009180
18 august, thu
thu1800:00+26sw33715 0.0 1009174
03:00+26nw347156 0.2 1009253
06:00+26nw33675 0.8 1009329
09:00+26nw326371 0.9 1010362
12:00+26n11603 0.2 1009152
15:00+27ene436243 1.3 1008218
18:00+27e457037 0.0 1008250
21:00+27sse346828 0.1 100889
19 august, fri
fri1900:00+26w23715 0.3 1008102
03:00+26nw546949 1.1 1008432
06:00+25nw33717 0.1 1008302
09:00+25wnw227056 0.2 1009314
12:00+26nw226845 0.0 1009254
15:00+26nne336695 0.0 1009323
18:00+27ne22696 0.0 1008143
21:00+27ese2270100 0.0 100817
20 august, sat
sat2000:00+26e227399 0.4 1009131
03:00+26ene3374100 0.4 1009276
06:00+25e557397 0.0 1010456
09:00+25ene337314 0.2 1010429
12:00+26ene667340 0.9 1011646
15:00+26ne45727 0.9 1010454
18:00+26ne667716 0.1 1009387
21:00+26ene35760 0.5 1009258
21 august, sun
sun2100:00+26nne33765 0.3 1009152
03:00+27ene56764 1.3 1008127
06:00+25e89755 0.1 1008442
09:00+25e99750 0.1 1008630
12:00+25ene99670 0.1 1008545
15:00+25ene11117292 1.3 1007464
18:00+26e8970100 0.1 1007386
21:00+26ne577412 0.1 1007203